Atqasuk Edward Burnell Sr Memorial Airport
PATQ : now visible

Airfield :











YOU CAN JOIN US ON...

 
LOGIN :

Register | Disclaimer

   EN    FR    IT 

 









Legend :    VFR   Marginal VFR   IFR   Intensive IFR   Very Intensive IFR
Visi :
Ceiling :
>= 8 km
>= 3000ft
5 to 8 km
1000 to 3000 ft
1500m to 5 km
500 to 1000 ft
800 to 1500m
200 to 500 ft
< 800m
< 200 ft
Symbols :   Thunderstorms  Fog  Heavy snow  Heavy precipitations  Wind > 20 kt






- Airport Elevation : 96 ft
- IATA code : ATK


PATQ - Atqasuk Edward Burnell Sr Memorial

CURRENT METAR :
  • 010756Z AUTO 21019KT 10SM BKN070 14/08 A2956 RMK AO2 PK WND 20028/0740 SLP013 T01390083 TSNO

EXPIRED METARs :
  • 010656Z AUTO 20018KT 10SM CLR 15/09 A2953 RMK AO2 PK WND 21031/0624 SLP002 T01500089 TSNO
  • 010556Z AUTO 23013G18KT 10SM SCT070 17/11 A2950 RMK AO2 PK WND 21026/0458 SLP994 60000 T01670106 10206 20156 53017 TSNO

TAF N/A
PAZA FIR / North America



MET'MAP, your aeronautical weather chart ! - Copyright ORBIFLY December 2007 - Disclaimer

ORBIFLY MET'MAP TEAM :

Programming & Development : Alexandra Zaïnal
Concept & original design : Baudouin d'Aumeries
Assistance for programming : Marc-Olivier Méhu
Technical & hardware support : Manuel Goepfert

Contact : metmap@orbifly.com




SOURCES & CREDITS :

   NOAA       Earth
Advisory